Find Starlink 5999

NORAD ID: 56909 Int'l Des: 2023-083 Owner: SPXS Country: US Constellation: starlink operational
LEOCIRCULAR

Live Position

Loading 3D Globe...

About Starlink 5999

Description loading...

Upcoming Passes

Passes for default location (London). Set your location on the main map for personalized predictions.

Altitude History

Loading altitude history...

Two-Line Element Set

1 56909U 23083AK 26105.04477508 .00001016 00000-0 47560-4 0 9998
2 56909 43.0024 225.7517 0001170 274.9912 85.0806 15.26729567157466
Epoch: Apr 15, 2026 • Age: 10 hours

Current Status

Altitude 487.5 km
Velocity 7.63 km/s
Sub-Earth Point 33.62°N, 11.03°W
Launch Date Jun 12, 2023
Age 2.8 years
Type internet

Technical Details

Classification Payload
Mass 305.00 kg
Dry Mass 290.00 kg
Total Mass 305.00 kg
Length 0.20 m
Diameter 2.80 m
Span 9.00 m
Shape Box + pan
Manufacturer SPXS
Bus Type Starlink
Phase Status In Orbit
Owner/State SPXS/US

Most Searched